Hourly Data Report for June 14, 2018

TORONTO CITY
ONTARIO
Current Station Operator: ECCC - MSC

43°40'00.000" N
79°24'00.000" W
112.50 m
6158355
71508
XTO

Download Data

Hourly Data (June 2018)
Hourly Data Report for June 14, 2018
TIME
LST
Temp Definition
°C
Dew Point Definition
°C
Rel Hum Definition
%
Precip. Amount Definition
mm

Wind Dir Definition
10's deg

Wind Spd Definition
km/h
Visibility Definition
km
Stn Press Definition
kPa
Hmdx Definition


Wind Chill Definition


Weather Definition


00:00 18.3 6.6 46 0.0 LegendMM LegendMM   99.62     LegendNANA
01:00 17.5 6.8 49 0.0 LegendMM LegendMM   99.65     LegendNANA
02:00 16.6 7.5 55 0.0 LegendMM LegendMM   99.66     LegendNANA
03:00 16.6 7.0 53 0.2 LegendMM LegendMM   99.64     LegendNANA
04:00 16.6 6.8 52 0.0 LegendMM LegendMM   99.64     LegendNANA
05:00 16.8 6.9 52 0.0 LegendMM LegendMM   99.68     LegendNANA
06:00 16.9 7.4 53 0.0 LegendMM LegendMM   99.74     LegendNANA
07:00 18.4 7.9 50 0.0 LegendMM LegendMM   99.80     LegendNANA
08:00 19.8 8.7 49 0.0 LegendMM LegendMM   99.85     LegendNANA
09:00 20.6 7.1 42 0.0 LegendMM LegendMM   99.89     LegendNANA
10:00 20.9 7.9 43 0.0 LegendMM LegendMM   99.92     LegendNANA
11:00 21.8 8.2 42 0.0 LegendMM LegendMM   99.92     LegendNANA
12:00 22.8 5.6 33 0.0 LegendMM LegendMM   99.91     LegendNANA
13:00 23.0 4.8 31 0.0 LegendMM LegendMM   99.98     LegendNANA
14:00 24.2 5.1 29 0.0 LegendMM LegendMM   99.99     LegendNANA
15:00 24.1 5.8 31 0.0 LegendMM LegendMM   99.96     LegendNANA
16:00 23.7 3.8 27 0.0 LegendMM LegendMM   100.00     LegendNANA
17:00 23.5 2.8 26 0.0 LegendMM LegendMM   99.99     LegendNANA
18:00 23.1 2.2 25 0.0 LegendMM LegendMM   100.02     LegendNANA
19:00 22.0 3.9 31 0.0 LegendMM LegendMM   100.06     LegendNANA
20:00 20.8 3.6 32 0.0 LegendMM LegendMM   100.07     LegendNANA
21:00 20.1 2.4 31 0.0 LegendMM LegendMM   100.12     LegendNANA
22:00 18.5 3.8 38 0.0 LegendMM LegendMM   100.13     LegendNANA
23:00 17.2 4.0 41 0.0 LegendMM LegendMM   100.15     LegendNANA

Notes on Data Quality.

Legend

  • E = Estimated
  • M = Missing
  • NA = Not Available*
  • [empty] = Indicates an unobserved value
Date modified: